Weather History for Roswell, NM

Change the Weather History Date:

Wednesday, September 3, 2014

  Actual Average Record
Temperature  
Mean Temperature 81 °F 76 °F  
Max Temperature 98 °F 89 °F 102 °F (2012)
Min Temperature 64 °F 63 °F 50 °F (1955)
Degree Days  
Heating Degree Days 0 0  
Month to date heating degree days 0 0  
Since 1 July heating degree days 0 0  
Cooling Degree Days 16 11  
Month to date cooling degree days 50 34  
Year to date cooling degree days 1735 1558  
Growing Degree Days 31 (Base 50)    
Moisture  
Dew Point 58 °F    
Average Humidity 50    
Maximum Humidity 78    
Minimum Humidity 22    
Precipitation  
Precipitation 0.00 in 0.05 in 2.45 in (2006)
Month to date precipitation 0.00 0.16  
Year to date precipitation 12.24 9.09  
Sea Level Pressure  
Sea Level Pressure 29.73 in    
Wind  
Wind Speed 12 mph (SSE)    
Max Wind Speed 23 mph    
Max Gust Speed 29 mph    
Visibility 10 miles    
Events      
T = Trace of Precipitation, MM = Missing Value Source: NWS Daily Summary

Daily Weather History Graph

Daily Weather History Graph

Search for Another Location

Airport:

Trip Planner

Search our weather history database for the weather conditions in past years. The results will help you decide how hot, cold, wet, or windy it might be!

Date:

Astronomy

Sep. 03, 2014 Rise Set
Actual Time 6:33 AM MDT 7:20 PM MDT
Civil Twilight 6:08 AM MDT 7:45 PM MDT
Nautical Twilight 5:38 AM MDT 8:15 PM MDT
Astronomical Twilight 5:08 AM MDT 8:45 PM MDT
Moon 2:55 PM MDT (9/3) 12:39 AM MDT (9/3)
Length of Visible Light 13h 37m
Length of Day
12h 46m
Waxing Gibbous, 64% of the Moon is Illuminated
Sep 3
Waxing Gibbous
Sep 8
Full
Sep 15
Last Quarter
Sep 24
New
Oct 1
First Quarter

Hourly Weather History & Observations

Time (MDT) Temp. Heat Index Dew Point Humidity Pressure Visibility Wind Dir Wind Speed Gust Speed Precip Events Conditions
12:51 AM 80.1 °F 80.6 °F 57.9 °F 47% 29.75 in 10.0 mi SSE 13.8 mph - N/A   Clear
1:51 AM 75.9 °F - 57.9 °F 54% 29.75 in 10.0 mi SSE 8.1 mph - N/A   Clear
2:51 AM 72.0 °F - 57.9 °F 61% 29.74 in 10.0 mi South 9.2 mph - N/A   Clear
3:51 AM 70.0 °F - 57.9 °F 65% 29.74 in 10.0 mi South 3.5 mph - N/A   Clear
4:51 AM 69.1 °F - 59.0 °F 70% 29.74 in 10.0 mi WSW 3.5 mph - N/A   Clear
5:51 AM 66.0 °F - 57.9 °F 75% 29.75 in 10.0 mi South 3.5 mph - N/A   Clear
6:51 AM 64.9 °F - 57.0 °F 75% 29.77 in 10.0 mi Calm Calm - N/A   Clear
7:51 AM 72.0 °F - 60.1 °F 66% 29.78 in 10.0 mi SE 4.6 mph - N/A   Clear
8:51 AM 77.0 °F - 61.0 °F 58% 29.79 in 10.0 mi SSE 17.3 mph - N/A   Clear
10:51 AM 84.9 °F 85.4 °F 62.1 °F 46% 29.79 in 10.0 mi SSE 13.8 mph - N/A   Clear
11:51 AM 88.0 °F 88.4 °F 62.1 °F 42% 29.76 in 10.0 mi SSE 10.4 mph - N/A   Clear
12:51 PM 91.9 °F 91.8 °F 61.0 °F 35% 29.72 in 10.0 mi SSE 10.4 mph 20.7 mph N/A   Clear
1:51 PM 93.9 °F 93.2 °F 59.0 °F 31% 29.71 in 10.0 mi SSE 13.8 mph - N/A   Clear
2:51 PM 97.0 °F 94.6 °F 54.0 °F 23% 29.69 in 10.0 mi SSE 11.5 mph 20.7 mph N/A   Clear
3:51 PM 98.1 °F 95.7 °F 53.1 °F 22% 29.67 in 10.0 mi SSE 17.3 mph 24.2 mph N/A   Clear
4:51 PM 97.0 °F 94.6 °F 53.1 °F 23% 29.67 in 10.0 mi SSE 20.7 mph 28.8 mph N/A   Clear
5:51 PM 95.0 °F - 51.1 °F 22% 29.67 in 10.0 mi SSE 18.4 mph 28.8 mph N/A   Clear
6:51 PM 91.0 °F - 50.0 °F 24% 29.69 in 10.0 mi SSE 13.8 mph - N/A   Clear
7:51 PM 87.1 °F 84.9 °F 53.1 °F 31% 29.70 in 10.0 mi SSE 16.1 mph - N/A   Clear
8:51 PM 84.0 °F 84.0 °F 60.1 °F 44% 29.73 in 10.0 mi SSE 20.7 mph 26.5 mph N/A   Clear
10:51 PM 80.1 °F 80.9 °F 60.1 °F 50% 29.76 in 10.0 mi South 15.0 mph - N/A   Clear
11:51 PM 78.1 °F - 60.1 °F 54% 29.77 in 10.0 mi SSE 12.7 mph - N/A   Clear